Time,TemperatureF,DewpointF,PressureIn,WindDirection,WindDirectionDegrees,WindSpeedMPH,WindSpeedGustMPH,Humidity,HourlyPrecipIn,Conditions,Clouds,dailyrainin,SolarRadiationWatts/m^2,SoftwareType,DateUTC
2013-01-08 00:00:00,22.4,20.2,30.28,SSE,164,0.0,0.0,91,0.00,,,0.00,0.0,WeatherDisplay:10.37,2013-01-08 05:00:00,
2013-01-08 00:02:00,22.2,20.0,30.28,SSE,164,0.0,0.0,91,0.00,,,0.00,0.0,WeatherDisplay:10.37,2013-01-08 05:02:00,
2013-01-08 00:03:00,22.2,20.0,30.28,SSE,164,0.0,0.0,91,0.00,,,0.00,0.0,WeatherDisplay:10.37,2013-01-08 05:03:00,
2013-01-08 00:08:00,22.0,19.8,30.27,SSE,164,0.0,0.0,91,0.00,,,0.00,0.0,WeatherDisplay:10.37,2013-01-08 05:08:00,
2013-01-08 00:13:00,21.9,19.9,30.27,SSE,164,0.0,0.0,92,0.00,,,0.00,0.0,WeatherDisplay:10.37,2013-01-08 05:13:00,
2013-01-08 00:18:00,21.9,19.9,30.27,SSE,164,0.0,0.0,92,0.00,,,0.00,0.0,WeatherDisplay:10.37,2013-01-08 05:18:00,
2013-01-08 00:23:00,21.8,19.8,30.27,SSE,164,0.0,0.0,92,0.00,,,0.00,0.0,WeatherDisplay:10.37,2013-01-08 05:23:00,
2013-01-08 00:28:00,21.6,19.6,30.27,SSE,164,0.0,0.0,92,0.00,,,0.00,0.0,WeatherDisplay:10.37,2013-01-08 05:28:00,
2013-01-08 00:33:00,21.5,19.5,30.27,SSE,164,0.0,0.0,92,0.00,,,0.00,0.0,WeatherDisplay:10.37,2013-01-08 05:33:00,
2013-01-08 00:38:00,21.5,19.5,30.26,SSE,164,0.0,0.0,92,0.00,,,0.00,0.0,WeatherDisplay:10.37,2013-01-08 05:38:00,
2013-01-08 00:43:00,21.4,19.4,30.26,SSE,164,0.0,0.0,92,0.00,,,0.00,0.0,WeatherDisplay:10.37,2013-01-08 05:43:00,
2013-01-08 00:48:00,21.5,19.8,30.26,SSE,164,0.0,0.0,93,0.00,,,0.00,0.0,WeatherDisplay:10.37,2013-01-08 05:48:00,
2013-01-08 00:53:00,21.5,19.8,30.25,SSE,164,0.0,0.0,93,0.00,,,0.00,0.0,WeatherDisplay:10.37,2013-01-08 05:53:00,
2013-01-08 00:58:00,21.6,19.9,30.25,SSE,164,0.3,1.1,93,0.00,,,0.00,0.0,WeatherDisplay:10.37,2013-01-08 05:58:00,
2013-01-08 01:03:00,21.7,20.0,30.25,SSE,164,0.0,0.0,93,0.00,,,0.00,0.0,WeatherDisplay:10.37,2013-01-08 06:03:00,
2013-01-08 01:08:00,21.7,20.0,30.24,SSE,164,0.0,0.0,93,0.00,,,0.00,0.0,WeatherDisplay:10.37,2013-01-08 06:08:00,
2013-01-08 01:13:00,21.7,20.0,30.24,SSE,164,0.0,0.0,93,0.00,,,0.00,0.0,WeatherDisplay:10.37,2013-01-08 06:13:00,
2013-01-08 01:18:00,21.6,19.9,30.24,SSE,164,0.0,0.0,93,0.00,,,0.00,0.0,WeatherDisplay:10.37,2013-01-08 06:18:00,
2013-01-08 01:23:00,21.5,19.8,30.24,SSE,164,0.0,0.0,93,0.00,,,0.00,0.0,WeatherDisplay:10.37,2013-01-08 06:23:00,
2013-01-08 01:28:00,21.3,19.6,30.24,SSE,164,0.1,0.0,93,0.00,,,0.00,0.0,WeatherDisplay:10.37,2013-01-08 06:28:00,
2013-01-08 01:33:00,21.2,19.2,30.24,SSE,164,0.0,1.1,92,0.00,,,0.00,0.0,WeatherDisplay:10.37,2013-01-08 06:33:00,
2013-01-08 01:38:00,21.1,19.1,30.24,SSE,164,0.0,0.0,92,0.00,,,0.00,0.0,WeatherDisplay:10.37,2013-01-08 06:38:00,
2013-01-08 01:43:00,21.1,19.4,30.24,SSE,164,0.0,0.0,93,0.00,,,0.00,0.0,WeatherDisplay:10.37,2013-01-08 06:43:00,
2013-01-08 01:48:00,21.1,19.4,30.24,SSE,164,0.1,1.1,93,0.00,,,0.00,0.0,WeatherDisplay:10.37,2013-01-08 06:48:00,
2013-01-08 01:53:00,21.1,19.4,30.24,SSE,164,0.0,0.0,93,0.00,,,0.00,0.0,WeatherDisplay:10.37,2013-01-08 06:53:00,
2013-01-08 01:58:00,21.1,19.4,30.24,SSE,164,0.0,0.0,93,0.00,,,0.00,0.0,WeatherDisplay:10.37,2013-01-08 06:58:00,
2013-01-08 02:03:00,21.1,19.4,30.24,SSE,164,0.0,0.0,93,0.00,,,0.00,0.0,WeatherDisplay:10.37,2013-01-08 07:03:00,
2013-01-08 02:08:00,20.9,19.2,30.25,SSE,164,0.0,0.0,93,0.00,,,0.00,0.0,WeatherDisplay:10.37,2013-01-08 07:08:00,
2013-01-08 02:13:00,20.5,18.5,30.25,SSE,164,0.0,0.0,92,0.00,,,0.00,0.0,WeatherDisplay:10.37,2013-01-08 07:13:00,
2013-01-08 02:18:00,20.2,18.2,30.25,SSE,164,0.0,1.1,92,0.00,,,0.00,0.0,WeatherDisplay:10.37,2013-01-08 07:18:00,
2013-01-08 02:23:00,20.2,18.5,30.26,SSE,164,0.0,0.0,93,0.00,,,0.00,0.0,WeatherDisplay:10.37,2013-01-08 07:23:00,
2013-01-08 02:28:00,20.3,18.6,30.26,SSE,164,0.0,0.0,93,0.00,,,0.00,0.0,WeatherDisplay:10.37,2013-01-08 07:28:00,
2013-01-08 02:33:00,20.4,18.7,30.26,SSE,164,0.0,0.0,93,0.00,,,0.00,0.0,WeatherDisplay:10.37,2013-01-08 07:33:00,
2013-01-08 02:38:00,20.4,18.7,30.26,SSE,164,0.0,0.0,93,0.00,,,0.00,0.0,WeatherDisplay:10.37,2013-01-08 07:38:00,
2013-01-08 02:43:00,20.4,18.7,30.26,SSE,164,0.0,0.0,93,0.00,,,0.00,0.0,WeatherDisplay:10.37,2013-01-08 07:43:00,
2013-01-08 02:48:00,20.4,18.7,30.27,SSE,164,0.0,0.0,93,0.00,,,0.00,0.0,WeatherDisplay:10.37,2013-01-08 07:48:00,
2013-01-08 02:53:00,20.4,18.7,30.27,SSE,164,0.0,0.0,93,0.00,,,0.00,0.0,WeatherDisplay:10.37,2013-01-08 07:53:00,
2013-01-08 02:58:00,20.4,18.7,30.27,SSE,164,0.0,0.0,93,0.00,,,0.00,0.0,WeatherDisplay:10.37,2013-01-08 07:58:00,
2013-01-08 03:03:00,20.3,18.6,30.27,SSE,164,0.0,0.0,93,0.00,,,0.00,0.0,WeatherDisplay:10.37,2013-01-08 08:03:00,
2013-01-08 03:08:00,20.2,18.5,30.27,SSE,164,0.2,1.1,93,0.00,,,0.00,0.0,WeatherDisplay:10.37,2013-01-08 08:08:00,
2013-01-08 03:13:00,20.1,18.4,30.27,SSE,164,0.0,0.0,93,0.00,,,0.00,0.0,WeatherDisplay:10.37,2013-01-08 08:13:00,
2013-01-08 03:18:00,20.2,18.5,30.27,SSE,164,0.0,0.0,93,0.00,,,0.00,0.0,WeatherDisplay:10.37,2013-01-08 08:18:00,
2013-01-08 03:23:00,20.1,18.4,30.27,SSE,164,0.0,0.0,93,0.00,,,0.00,0.0,WeatherDisplay:10.37,2013-01-08 08:23:00,
2013-01-08 03:28:00,20.1,18.4,30.27,SSE,164,0.0,0.0,93,0.00,,,0.00,0.0,WeatherDisplay:10.37,2013-01-08 08:28:00,
2013-01-08 03:33:00,20.0,18.3,30.27,SSE,164,0.0,0.0,93,0.00,,,0.00,0.0,WeatherDisplay:10.37,2013-01-08 08:33:00,
2013-01-08 03:39:00,19.9,18.2,30.27,SSE,164,0.0,0.0,93,0.00,,,0.00,0.0,WeatherDisplay:10.37,2013-01-08 08:39:00,
2013-01-08 03:44:00,19.7,18.0,30.27,SSE,164,0.0,0.0,93,0.00,,,0.00,0.0,WeatherDisplay:10.37,2013-01-08 08:44:00,
2013-01-08 03:49:00,19.8,18.1,30.27,SSE,164,0.0,0.0,93,0.00,,,0.00,0.0,WeatherDisplay:10.37,2013-01-08 08:49:00,
2013-01-08 03:54:00,19.9,18.5,30.27,SSE,164,0.0,0.0,94,0.00,,,0.00,0.0,WeatherDisplay:10.37,2013-01-08 08:54:00,
2013-01-08 03:59:00,20.1,18.7,30.27,SSE,164,0.0,0.0,94,0.00,,,0.00,0.0,WeatherDisplay:10.37,2013-01-08 08:59:00,
2013-01-08 04:04:00,20.3,18.8,30.27,SSE,164,0.0,0.0,94,0.00,,,0.00,0.0,WeatherDisplay:10.37,2013-01-08 09:04:00,
2013-01-08 04:09:00,20.3,18.8,30.27,SSE,164,0.0,0.0,94,0.00,,,0.00,0.0,WeatherDisplay:10.37,2013-01-08 09:09:00,
2013-01-08 04:14:00,20.2,18.8,30.27,SSE,164,0.0,0.0,94,0.00,,,0.00,0.0,WeatherDisplay:10.37,2013-01-08 09:14:00,
2013-01-08 04:19:00,20.3,18.8,30.26,SSE,164,0.0,0.0,94,0.00,,,0.00,0.0,WeatherDisplay:10.37,2013-01-08 09:19:00,
2013-01-08 04:24:00,20.3,18.8,30.26,SSE,163,0.0,0.0,94,0.00,,,0.00,0.0,WeatherDisplay:10.37,2013-01-08 09:24:00,
2013-01-08 04:29:00,20.2,18.8,30.26,SSE,164,0.0,0.0,94,0.00,,,0.00,0.0,WeatherDisplay:10.37,2013-01-08 09:29:00,
2013-01-08 04:34:00,20.3,18.8,30.27,SSE,164,0.0,0.0,94,0.00,,,0.00,0.0,WeatherDisplay:10.37,2013-01-08 09:34:00,
2013-01-08 04:39:00,20.5,19.0,30.26,SSE,164,0.0,0.0,94,0.00,,,0.00,0.0,WeatherDisplay:10.37,2013-01-08 09:39:00,
2013-01-08 04:44:00,20.6,19.1,30.26,SSE,164,0.0,0.0,94,0.00,,,0.00,0.0,WeatherDisplay:10.37,2013-01-08 09:44:00,
2013-01-08 04:49:00,20.5,19.0,30.27,SSE,164,0.0,0.0,94,0.00,,,0.00,0.0,WeatherDisplay:10.37,2013-01-08 09:49:00,
2013-01-08 04:54:00,20.5,19.0,30.27,SSE,164,0.0,0.0,94,0.00,,,0.00,0.0,WeatherDisplay:10.37,2013-01-08 09:54:00,
2013-01-08 04:59:00,20.4,18.9,30.27,SSE,164,0.0,0.0,94,0.00,,,0.00,0.0,WeatherDisplay:10.37,2013-01-08 09:59:00,
2013-01-08 05:04:00,20.5,19.0,30.27,SSE,164,0.0,0.0,94,0.00,,,0.00,0.0,WeatherDisplay:10.37,2013-01-08 10:04:00,
2013-01-08 05:09:00,20.6,19.1,30.27,SSE,164,0.0,0.0,94,0.00,,,0.00,0.0,WeatherDisplay:10.37,2013-01-08 10:09:00,
2013-01-08 05:14:00,20.8,19.6,30.27,SSE,163,0.0,0.0,95,0.00,,,0.00,0.0,WeatherDisplay:10.37,2013-01-08 10:14:00,
2013-01-08 05:19:00,20.9,19.4,30.27,SSE,164,0.0,0.0,94,0.00,,,0.00,0.0,WeatherDisplay:10.37,2013-01-08 10:19:00,
2013-01-08 05:24:00,20.9,19.4,30.27,SSE,164,0.0,0.0,94,0.00,,,0.00,0.0,WeatherDisplay:10.37,2013-01-08 10:24:00,
2013-01-08 05:29:00,21.0,19.5,30.27,SSE,164,0.0,0.0,94,0.00,,,0.00,0.0,WeatherDisplay:10.37,2013-01-08 10:29:00,
2013-01-08 05:34:00,20.9,19.4,30.27,SSE,164,0.0,0.0,94,0.00,,,0.00,0.0,WeatherDisplay:10.37,2013-01-08 10:34:00,
2013-01-08 05:39:00,20.9,19.4,30.27,SSE,164,0.0,0.0,94,0.00,,,0.00,0.0,WeatherDisplay:10.37,2013-01-08 10:39:00,
2013-01-08 05:44:00,20.8,19.3,30.28,SSE,164,0.0,0.0,94,0.00,,,0.00,0.0,WeatherDisplay:10.37,2013-01-08 10:44:00,
2013-01-08 05:49:00,20.8,19.3,30.28,SSE,164,0.0,0.0,94,0.00,,,0.00,0.0,WeatherDisplay:10.37,2013-01-08 10:49:00,
2013-01-08 05:54:00,20.8,19.3,30.28,SSE,164,0.0,0.0,94,0.00,,,0.00,0.0,WeatherDisplay:10.37,2013-01-08 10:54:00,
2013-01-08 05:59:00,20.7,19.2,30.28,SSE,164,0.0,0.0,94,0.00,,,0.00,0.0,WeatherDisplay:10.37,2013-01-08 10:59:00,
2013-01-08 06:04:00,20.6,19.1,30.28,SSE,164,0.0,0.0,94,0.00,,,0.00,0.0,WeatherDisplay:10.37,2013-01-08 11:04:00,
2013-01-08 06:09:00,20.7,19.2,30.28,SSE,164,0.0,0.0,94,0.00,,,0.00,0.0,WeatherDisplay:10.37,2013-01-08 11:09:00,
2013-01-08 06:14:00,20.7,19.2,30.28,SSE,164,0.0,0.0,94,0.00,,,0.00,0.0,WeatherDisplay:10.37,2013-01-08 11:14:00,
2013-01-08 06:19:00,20.7,19.2,30.28,SSE,164,0.0,0.0,94,0.00,,,0.00,0.0,WeatherDisplay:10.37,2013-01-08 11:19:00,
2013-01-08 06:24:00,20.8,19.3,30.28,SSE,164,0.0,0.0,94,0.00,,,0.00,0.0,WeatherDisplay:10.37,2013-01-08 11:24:00,
2013-01-08 06:29:00,20.9,19.4,30.29,SSE,164,0.0,0.0,94,0.00,,,0.00,0.0,WeatherDisplay:10.37,2013-01-08 11:29:00,
2013-01-08 06:34:00,21.0,19.5,30.29,SSE,164,0.0,0.0,94,0.00,,,0.00,0.0,WeatherDisplay:10.37,2013-01-08 11:34:00,
2013-01-08 06:39:00,21.2,20.0,30.29,SSE,164,0.0,0.0,95,0.00,,,0.00,0.0,WeatherDisplay:10.37,2013-01-08 11:39:00,
2013-01-08 06:44:00,21.3,20.1,30.29,SSE,163,0.0,0.0,95,0.00,,,0.00,0.0,WeatherDisplay:10.37,2013-01-08 11:44:00,
2013-01-08 06:49:00,21.5,20.3,30.29,SSE,164,0.0,0.0,95,0.00,,,0.00,0.0,WeatherDisplay:10.37,2013-01-08 11:49:00,
2013-01-08 06:54:00,21.6,20.4,30.29,SSE,164,0.0,0.0,95,0.00,,,0.00,0.0,WeatherDisplay:10.37,2013-01-08 11:54:00,
2013-01-08 06:59:00,21.7,20.2,30.30,SSE,164,0.0,0.0,94,0.00,,,0.00,0.0,WeatherDisplay:10.37,2013-01-08 11:59:00,
2013-01-08 07:04:00,21.8,20.6,30.30,SSE,164,0.4,1.1,95,0.00,,,0.00,0.0,WeatherDisplay:10.37,2013-01-08 12:04:00,
2013-01-08 07:09:00,21.9,20.7,30.29,SSE,164,0.3,1.1,95,0.00,,,0.00,0.0,WeatherDisplay:10.37,2013-01-08 12:09:00,
2013-01-08 07:14:00,21.9,20.7,30.30,SSE,164,0.0,0.0,95,0.00,,,0.00,0.0,WeatherDisplay:10.37,2013-01-08 12:14:00,
2013-01-08 07:19:00,21.9,20.7,30.30,SSE,164,0.0,0.0,95,0.00,,,0.00,0.0,WeatherDisplay:10.37,2013-01-08 12:19:00,
2013-01-08 07:24:00,21.9,20.4,30.30,SSE,164,0.0,0.0,94,0.00,,,0.00,0.0,WeatherDisplay:10.37,2013-01-08 12:24:00,
2013-01-08 07:29:00,21.9,20.4,30.30,SSE,164,0.1,1.1,94,0.00,,,0.00,0.0,WeatherDisplay:10.37,2013-01-08 12:29:00,
2013-01-08 07:34:00,21.8,20.3,30.30,SSE,164,0.2,1.0,94,0.00,,,0.00,0.0,WeatherDisplay:10.37,2013-01-08 12:34:00,
2013-01-08 07:39:00,21.8,20.3,30.30,SSE,164,0.2,1.1,94,0.00,,,0.00,0.0,WeatherDisplay:10.37,2013-01-08 12:39:00,
2013-01-08 07:44:00,21.8,20.3,30.30,SSE,164,0.1,1.1,94,0.00,,,0.00,0.0,WeatherDisplay:10.37,2013-01-08 12:44:00,
2013-01-08 07:49:00,21.8,20.3,30.30,SSE,164,0.3,0.0,94,0.00,,,0.00,0.0,WeatherDisplay:10.37,2013-01-08 12:49:00,
2013-01-08 07:54:00,21.9,20.4,30.30,SSE,163,1.0,2.3,94,0.00,,,0.00,0.0,WeatherDisplay:10.37,2013-01-08 12:54:00,
2013-01-08 07:59:00,22.0,20.5,30.31,SSE,163,1.1,2.3,94,0.00,,,0.00,0.0,WeatherDisplay:10.37,2013-01-08 12:59:00,
2013-01-08 08:04:00,22.1,20.6,30.31,SSE,163,0.9,1.1,94,0.00,,,0.00,0.0,WeatherDisplay:10.37,2013-01-08 13:04:00,
2013-01-08 08:09:00,22.2,20.7,30.31,SSE,163,0.1,2.3,94,0.00,BKN,,0.00,5.0,WeatherDisplay:10.37,2013-01-08 13:09:00,
2013-01-08 08:14:00,22.3,20.8,30.31,SSE,163,0.0,0.0,94,0.00,BKN,,0.00,9.0,WeatherDisplay:10.37,2013-01-08 13:14:00,
2013-01-08 08:19:00,22.3,20.8,30.31,SSE,163,0.0,0.0,94,0.00,BKN,,0.00,12.0,WeatherDisplay:10.37,2013-01-08 13:19:00,
2013-01-08 08:24:00,22.3,20.8,30.31,SSE,163,0.0,0.0,94,0.00,BKN,,0.00,14.0,WeatherDisplay:10.37,2013-01-08 13:24:00,
2013-01-08 08:29:00,22.3,20.8,30.32,SSE,163,0.0,0.0,94,0.00,BKN,,0.00,16.0,WeatherDisplay:10.37,2013-01-08 13:29:00,
2013-01-08 08:34:00,22.3,20.8,30.32,SSE,163,0.0,0.0,94,0.00,BKN,,0.00,19.0,WeatherDisplay:10.37,2013-01-08 13:34:00,
2013-01-08 08:39:00,22.3,20.8,30.32,SSE,163,0.0,0.0,94,0.00,BKN,,0.00,21.0,WeatherDisplay:10.37,2013-01-08 13:39:00,
2013-01-08 08:44:00,22.4,20.9,30.32,SSE,163,0.0,1.1,94,0.00,BKN,,0.00,25.0,WeatherDisplay:10.37,2013-01-08 13:44:00,
2013-01-08 08:49:00,22.7,21.2,30.32,SSE,163,0.0,0.0,94,0.00,BKN,,0.00,30.0,WeatherDisplay:10.37,2013-01-08 13:49:00,
2013-01-08 08:54:00,23.0,21.5,30.32,SSE,163,0.4,1.1,94,0.00,BKN,,0.00,35.0,WeatherDisplay:10.37,2013-01-08 13:54:00,
2013-01-08 09:00:00,23.2,21.7,30.32,SSE,163,0.5,1.1,94,0.00,BKN,,0.00,35.0,WeatherDisplay:10.37,2013-01-08 14:00:00,
2013-01-08 09:05:00,23.3,21.8,30.32,SSE,163,0.4,2.3,94,0.00,BKN,,0.00,37.0,WeatherDisplay:10.37,2013-01-08 14:05:00,
2013-01-08 09:10:00,23.5,22.0,30.32,SSE,163,0.0,0.0,94,0.00,BKN,,0.00,39.0,WeatherDisplay:10.37,2013-01-08 14:10:00,
2013-01-08 09:15:00,23.7,22.2,30.33,SSE,163,0.3,2.3,94,0.00,BKN,,0.00,42.0,WeatherDisplay:10.37,2013-01-08 14:15:00,
2013-01-08 09:20:00,23.9,22.4,30.33,SSE,163,0.1,1.1,94,0.00,BKN,,0.00,47.0,WeatherDisplay:10.37,2013-01-08 14:20:00,
2013-01-08 09:25:00,24.1,22.6,30.33,SSE,163,0.3,1.1,94,0.00,BKN,,0.00,54.0,WeatherDisplay:10.37,2013-01-08 14:25:00,
2013-01-08 09:30:00,24.4,22.9,30.33,SSE,163,0.3,2.3,94,0.00,BKN,,0.00,56.0,WeatherDisplay:10.37,2013-01-08 14:30:00,
2013-01-08 09:35:00,24.8,23.3,30.33,SSE,163,0.9,2.3,94,0.00,BKN,,0.00,60.0,WeatherDisplay:10.37,2013-01-08 14:35:00,
2013-01-08 09:40:00,25.3,23.8,30.33,SSE,163,0.7,2.3,94,0.00,BKN,,0.00,58.0,WeatherDisplay:10.37,2013-01-08 14:40:00,
2013-01-08 09:45:00,26.0,24.8,30.33,SSE,163,0.0,0.0,95,0.00,BKN,,0.00,67.0,WeatherDisplay:10.37,2013-01-08 14:45:00,
2013-01-08 09:50:00,27.1,25.9,30.33,SSE,160,0.7,3.5,95,0.00,BKN,,0.00,81.0,WeatherDisplay:10.37,2013-01-08 14:50:00,
2013-01-08 09:55:00,28.5,27.5,30.33,SSE,155,2.5,3.5,96,0.00,SCT,,0.00,93.0,WeatherDisplay:10.37,2013-01-08 14:55:00,
2013-01-08 10:00:00,30.0,29.0,30.33,SSE,155,0.1,1.1,96,0.00,SCT,,0.00,104.0,WeatherDisplay:10.37,2013-01-08 15:00:00,
2013-01-08 10:05:00,31.5,30.2,30.33,South,175,2.4,6.0,95,0.00,SCT,,0.00,104.0,WeatherDisplay:10.37,2013-01-08 15:05:00,
2013-01-08 10:10:00,33.2,31.1,30.33,SSE,161,0.4,2.3,92,0.00,SCT,,0.00,90.0,WeatherDisplay:10.37,2013-01-08 15:10:00,
2013-01-08 10:15:00,34.8,31.6,30.33,South,170,3.8,4.0,88,0.00,SCT,,0.00,76.0,WeatherDisplay:10.37,2013-01-08 15:15:00,
2013-01-08 10:20:00,36.1,31.4,30.33,SSE,151,2.4,6.9,83,0.00,BKN,,0.00,70.0,WeatherDisplay:10.37,2013-01-08 15:20:00,
2013-01-08 10:25:00,37.2,31.6,30.33,SSE,161,0.1,3.0,80,0.00,BKN,,0.00,69.0,WeatherDisplay:10.37,2013-01-08 15:25:00,
2013-01-08 10:30:00,37.8,31.2,30.33,South,180,3.5,8.1,77,0.00,BKN,,0.00,60.0,WeatherDisplay:10.37,2013-01-08 15:30:00,
2013-01-08 10:35:00,38.2,31.3,30.33,SSE,153,3.6,6.9,76,0.00,BKN,,0.00,72.0,WeatherDisplay:10.37,2013-01-08 15:35:00,
2013-01-08 10:40:00,38.3,31.1,30.33,SE,144,1.1,2.3,75,0.00,BKN,,0.00,86.0,WeatherDisplay:10.37,2013-01-08 15:40:00,
2013-01-08 10:45:00,38.4,31.2,30.33,South,179,3.7,10.0,75,0.00,BKN,,0.00,97.0,WeatherDisplay:10.37,2013-01-08 15:45:00,
2013-01-08 10:50:00,38.5,31.3,30.32,SSE,159,2.9,6.9,75,0.00,BKN,,0.00,109.0,WeatherDisplay:10.37,2013-01-08 15:50:00,
2013-01-08 10:55:00,38.7,31.5,30.32,SSE,156,3.3,3.5,75,0.00,BKN,,0.00,105.0,WeatherDisplay:10.37,2013-01-08 15:55:00,
2013-01-08 11:00:00,39.0,31.7,30.33,SSW,200,0.0,1.1,75,0.00,BKN,,0.00,107.0,WeatherDisplay:10.37,2013-01-08 16:00:00,
2013-01-08 11:05:00,39.3,31.7,30.33,SSE,163,2.6,4.6,74,0.00,BKN,,0.00,102.0,WeatherDisplay:10.37,2013-01-08 16:05:00,
2013-01-08 11:10:00,39.5,31.6,30.32,SSE,147,1.8,2.0,73,0.00,BKN,,0.00,107.0,WeatherDisplay:10.37,2013-01-08 16:10:00,
2013-01-08 11:15:00,39.7,31.8,30.32,South,172,4.4,6.9,73,0.00,BKN,,0.00,104.0,WeatherDisplay:10.37,2013-01-08 16:15:00,
2013-01-08 11:20:00,39.8,31.8,30.32,South,170,1.3,3.5,73,0.00,BKN,,0.00,116.0,WeatherDisplay:10.37,2013-01-08 16:20:00,
2013-01-08 11:25:00,39.8,31.5,30.32,SE,144,1.6,2.3,72,0.00,BKN,,0.00,134.0,WeatherDisplay:10.37,2013-01-08 16:25:00,
2013-01-08 11:30:00,39.8,31.8,30.32,SSE,166,1.1,4.6,73,0.00,BKN,,0.00,137.0,WeatherDisplay:10.37,2013-01-08 16:30:00,
2013-01-08 11:35:00,40.0,31.7,30.32,South,183,5.4,8.1,72,0.00,BKN,,0.00,130.0,WeatherDisplay:10.37,2013-01-08 16:35:00,
2013-01-08 11:40:00,40.2,31.9,30.31,South,178,3.6,5.8,72,0.00,BKN,,0.00,132.0,WeatherDisplay:10.37,2013-01-08 16:40:00,
2013-01-08 11:45:00,40.4,32.1,30.32,SSE,147,0.3,2.3,72,0.00,BKN,,0.00,123.0,WeatherDisplay:10.37,2013-01-08 16:45:00,
2013-01-08 11:50:00,40.5,32.2,30.31,South,171,2.4,4.6,72,0.00,BKN,,0.00,141.0,WeatherDisplay:10.37,2013-01-08 16:50:00,
2013-01-08 11:56:00,40.7,32.4,30.31,South,169,0.0,0.0,72,0.00,BKN,,0.00,176.0,WeatherDisplay:10.37,2013-01-08 16:56:00,
2013-01-08 12:01:00,41.2,32.5,30.31,South,180,1.9,4.6,71,0.00,BKN,,0.00,183.0,WeatherDisplay:10.37,2013-01-08 17:01:00,
2013-01-08 12:06:00,41.6,32.5,30.31,South,180,0.6,3.5,70,0.00,BKN,,0.00,288.0,WeatherDisplay:10.37,2013-01-08 17:06:00,
2013-01-08 12:11:00,42.2,32.4,30.31,South,176,4.5,8.1,68,0.00,SCT,,0.00,339.0,WeatherDisplay:10.37,2013-01-08 17:11:00,
2013-01-08 12:16:00,42.3,32.5,30.30,SSW,194,3.5,5.8,68,0.00,FEW,,0.00,285.0,WeatherDisplay:10.37,2013-01-08 17:16:00,
2013-01-08 12:21:00,42.4,32.6,30.30,South,178,4.0,6.9,68,0.00,SCT,,0.00,287.0,WeatherDisplay:10.37,2013-01-08 17:21:00,
2013-01-08 12:26:00,42.4,32.6,30.29,SSW,194,5.4,8.1,68,0.00,SCT,,0.00,239.0,WeatherDisplay:10.37,2013-01-08 17:26:00,
2013-01-08 12:31:00,42.4,32.6,30.29,SE,144,2.5,3.5,68,0.00,SCT,,0.00,301.0,WeatherDisplay:10.37,2013-01-08 17:31:00,
2013-01-08 12:36:00,43.1,33.3,30.29,SSE,157,3.3,8.1,68,0.00,SCT,,0.00,257.0,WeatherDisplay:10.37,2013-01-08 17:36:00,
2013-01-08 12:41:00,43.6,33.4,30.29,SSE,156,2.3,4.6,67,0.00,SCT,,0.00,200.0,WeatherDisplay:10.37,2013-01-08 17:41:00,
2013-01-08 12:46:00,43.8,33.6,30.29,South,173,2.9,5.8,67,0.00,SCT,,0.00,432.0,WeatherDisplay:10.37,2013-01-08 17:46:00,
2013-01-08 12:51:00,44.7,34.0,30.29,South,179,0.3,3.5,66,0.00,CLR,,0.00,517.0,WeatherDisplay:10.37,2013-01-08 17:51:00,
2013-01-08 12:56:00,44.8,33.7,30.28,South,175,1.4,3.5,65,0.00,CLR,,0.00,376.0,WeatherDisplay:10.37,2013-01-08 17:56:00,
2013-01-08 13:01:00,45.5,34.4,30.28,SSW,205,4.3,9.2,65,0.00,CLR,,0.00,476.0,WeatherDisplay:10.37,2013-01-08 18:01:00,
2013-01-08 13:06:00,46.3,34.8,30.27,SSW,197,0.0,1.0,64,0.00,CLR,,0.00,473.0,WeatherDisplay:10.37,2013-01-08 18:06:00,
2013-01-08 13:11:00,46.8,34.9,30.27,SE,128,3.3,8.1,63,0.00,CLR,,0.00,374.0,WeatherDisplay:10.37,2013-01-08 18:11:00,
2013-01-08 13:16:00,46.3,34.4,30.27,SSE,163,1.7,4.6,63,0.00,CLR,,0.00,199.0,WeatherDisplay:10.37,2013-01-08 18:16:00,
2013-01-08 13:21:00,45.9,34.4,30.27,SSE,165,0.1,1.1,64,0.00,SCT,,0.00,265.0,WeatherDisplay:10.37,2013-01-08 18:21:00,
2013-01-08 13:26:00,45.8,34.3,30.27,South,171,0.8,2.3,64,0.00,SCT,,0.00,188.0,WeatherDisplay:10.37,2013-01-08 18:26:00,
2013-01-08 13:31:00,45.6,34.1,30.26,South,169,0.8,3.5,64,0.00,BKN,,0.00,186.0,WeatherDisplay:10.37,2013-01-08 18:31:00,
2013-01-08 13:36:00,45.6,34.5,30.26,South,170,0.1,1.1,65,0.00,BKN,,0.00,204.0,WeatherDisplay:10.37,2013-01-08 18:36:00,
2013-01-08 13:41:00,45.9,34.4,30.26,South,170,0.0,0.0,64,0.00,BKN,,0.00,202.0,WeatherDisplay:10.37,2013-01-08 18:41:00,
2013-01-08 13:46:00,46.1,34.6,30.26,South,169,0.0,1.1,64,0.00,SCT,,0.00,276.0,WeatherDisplay:10.37,2013-01-08 18:46:00,
2013-01-08 13:51:00,47.2,35.6,30.26,South,169,0.8,3.5,64,0.00,SCT,,0.00,494.0,WeatherDisplay:10.37,2013-01-08 18:51:00,
2013-01-08 13:56:00,48.4,35.6,30.26,South,169,0.0,0.0,61,0.00,CLR,,0.00,403.0,WeatherDisplay:10.37,2013-01-08 18:56:00,
2013-01-08 14:01:00,48.0,34.8,30.27,SSW,197,2.8,3.5,60,0.00,CLR,,0.00,329.0,WeatherDisplay:10.37,2013-01-08 19:01:00,
2013-01-08 14:06:00,47.7,34.9,30.27,SSW,197,0.5,3.0,61,0.00,CLR,,0.00,174.0,WeatherDisplay:10.37,2013-01-08 19:06:00,
2013-01-08 14:11:00,47.9,35.5,30.26,South,169,3.5,11.5,62,0.00,FEW,,0.00,185.0,WeatherDisplay:10.37,2013-01-08 19:11:00,
2013-01-08 14:16:00,47.9,34.3,30.27,South,180,0.5,2.3,59,0.00,SCT,,0.00,69.0,WeatherDisplay:10.37,2013-01-08 19:16:00,
2013-01-08 14:21:00,47.8,34.6,30.26,SSE,167,0.9,3.5,60,0.00,BKN,,0.00,162.0,WeatherDisplay:10.37,2013-01-08 19:21:00,
2013-01-08 14:26:00,47.8,34.6,30.26,South,188,2.9,4.6,60,0.00,BKN,,0.00,127.0,WeatherDisplay:10.37,2013-01-08 19:26:00,
2013-01-08 14:31:00,47.4,34.2,30.26,WSW,244,0.5,2.3,60,0.00,BKN,,0.00,86.0,WeatherDisplay:10.37,2013-01-08 19:31:00,
2013-01-08 14:36:00,47.2,34.4,30.26,WSW,237,1.9,4.6,61,0.00,BKN,,0.00,56.0,WeatherDisplay:10.37,2013-01-08 19:36:00,
2013-01-08 14:41:00,47.3,34.5,30.26,WSW,238,0.3,1.1,61,0.00,BKN,,0.00,47.0,WeatherDisplay:10.37,2013-01-08 19:41:00,
2013-01-08 14:46:00,47.9,34.7,30.26,South,178,4.1,6.9,60,0.00,BKN,,0.00,88.0,WeatherDisplay:10.37,2013-01-08 19:46:00,
2013-01-08 14:51:00,48.1,34.4,30.27,South,180,0.8,2.3,59,0.00,BKN,,0.00,46.0,WeatherDisplay:10.37,2013-01-08 19:51:00,
2013-01-08 14:56:00,47.7,34.5,30.26,SSW,213,0.8,3.5,60,0.00,BKN,,0.00,53.0,WeatherDisplay:10.37,2013-01-08 19:56:00,
2013-01-08 15:01:00,47.6,34.8,30.26,South,184,1.4,3.5,61,0.00,BKN,,0.00,63.0,WeatherDisplay:10.37,2013-01-08 20:01:00,
2013-01-08 15:06:00,47.6,35.2,30.26,South,177,1.1,5.8,62,0.00,BKN,,0.00,56.0,WeatherDisplay:10.37,2013-01-08 20:06:00,
2013-01-08 15:11:00,47.7,34.5,30.26,SSE,157,4.2,6.9,60,0.00,BKN,,0.00,46.0,WeatherDisplay:10.37,2013-01-08 20:11:00,
2013-01-08 15:16:00,47.9,34.7,30.26,SSW,207,1.4,4.0,60,0.00,BKN,,0.00,60.0,WeatherDisplay:10.37,2013-01-08 20:16:00,
2013-01-08 15:21:00,48.0,34.8,30.26,SSE,163,0.3,1.1,60,0.00,BKN,,0.00,83.0,WeatherDisplay:10.37,2013-01-08 20:21:00,
2013-01-08 15:26:00,47.8,34.6,30.26,SSE,156,3.4,4.6,60,0.00,BKN,,0.00,81.0,WeatherDisplay:10.37,2013-01-08 20:26:00,
2013-01-08 15:31:00,47.7,34.5,30.26,SE,130,1.2,3.5,60,0.00,BKN,,0.00,67.0,WeatherDisplay:10.37,2013-01-08 20:31:00,
2013-01-08 15:36:00,47.8,34.6,30.26,SSE,157,2.7,4.6,60,0.00,BKN,,0.00,88.0,WeatherDisplay:10.37,2013-01-08 20:36:00,
2013-01-08 15:41:00,47.9,34.7,30.26,South,180,2.2,5.0,60,0.00,BKN,,0.00,46.0,WeatherDisplay:10.37,2013-01-08 20:41:00,
2013-01-08 15:46:00,47.9,34.7,30.26,South,175,0.8,3.5,60,0.00,BKN,,0.00,37.0,WeatherDisplay:10.37,2013-01-08 20:46:00,
2013-01-08 15:51:00,47.9,34.7,30.26,SSW,202,0.5,4.6,60,0.00,BKN,,0.00,44.0,WeatherDisplay:10.37,2013-01-08 20:51:00,
2013-01-08 15:56:00,47.9,34.7,30.26,South,186,1.7,4.6,60,0.00,BKN,,0.00,39.0,WeatherDisplay:10.37,2013-01-08 20:56:00,
2013-01-08 16:01:00,47.9,34.7,30.26,South,186,1.4,2.3,60,0.00,BKN,,0.00,63.0,WeatherDisplay:10.37,2013-01-08 21:01:00,
2013-01-08 16:06:00,47.8,34.6,30.26,South,179,4.0,8.1,60,0.00,BKN,,0.00,47.0,WeatherDisplay:10.37,2013-01-08 21:06:00,
2013-01-08 16:11:00,47.8,35.0,30.26,South,169,3.0,3.5,61,0.00,SCT,,0.00,144.0,WeatherDisplay:10.37,2013-01-08 21:11:00,
2013-01-08 16:16:00,47.9,34.7,30.27,South,175,1.4,3.5,60,0.00,SCT,,0.00,69.0,WeatherDisplay:10.37,2013-01-08 21:16:00,
2013-01-08 16:21:00,47.7,34.9,30.26,South,176,0.0,0.0,61,0.00,SCT,,0.00,47.0,WeatherDisplay:10.37,2013-01-08 21:21:00,
2013-01-08 16:26:00,47.7,34.9,30.26,South,176,0.7,2.3,61,0.00,BKN,,0.00,44.0,WeatherDisplay:10.37,2013-01-08 21:26:00,
2013-01-08 16:31:00,47.3,34.9,30.26,South,176,1.9,3.5,62,0.00,BKN,,0.00,32.0,WeatherDisplay:10.37,2013-01-08 21:31:00,
2013-01-08 16:36:00,47.2,34.8,30.26,South,176,1.0,1.1,62,0.00,SCT,,0.00,42.0,WeatherDisplay:10.37,2013-01-08 21:36:00,
2013-01-08 16:41:00,47.1,34.7,30.26,South,175,1.1,3.5,62,0.00,BKN,,0.00,30.0,WeatherDisplay:10.37,2013-01-08 21:41:00,
2013-01-08 16:46:00,47.0,34.6,30.26,South,175,0.0,3.5,62,0.00,BKN,,0.00,18.0,WeatherDisplay:10.37,2013-01-08 21:46:00,
2013-01-08 16:51:00,46.8,34.5,30.26,South,175,0.0,0.0,62,0.00,BKN,,0.00,14.0,WeatherDisplay:10.37,2013-01-08 21:51:00,
2013-01-08 16:56:00,46.4,34.5,30.25,South,174,0.0,0.0,63,0.00,BKN,,0.00,11.0,WeatherDisplay:10.37,2013-01-08 21:56:00,
2013-01-08 17:01:00,45.9,34.4,30.25,South,174,0.2,2.3,64,0.00,BKN,,0.00,9.0,WeatherDisplay:10.37,2013-01-08 22:01:00,
2013-01-08 17:06:00,45.4,34.3,30.25,South,174,0.0,1.1,65,0.00,BKN,,0.00,9.0,WeatherDisplay:10.37,2013-01-08 22:06:00,
2013-01-08 17:11:00,44.6,33.9,30.25,South,174,0.5,2.3,66,0.00,BKN,,0.00,9.0,WeatherDisplay:10.37,2013-01-08 22:11:00,
2013-01-08 17:16:00,43.8,33.6,30.25,South,174,0.0,0.0,67,0.00,BKN,,0.00,9.0,WeatherDisplay:10.37,2013-01-08 22:16:00,
2013-01-08 17:21:00,42.9,33.4,30.25,South,174,0.0,0.0,69,0.00,SCT,,0.00,7.0,WeatherDisplay:10.37,2013-01-08 22:21:00,
2013-01-08 17:26:00,42.2,33.1,30.25,South,174,0.0,0.0,70,0.00,CLR,,0.00,5.0,WeatherDisplay:10.37,2013-01-08 22:26:00,
2013-01-08 17:31:00,41.7,33.0,30.25,South,174,0.0,0.0,71,0.00,,,0.00,0.0,WeatherDisplay:10.37,2013-01-08 22:31:00,
2013-01-08 17:36:00,40.8,32.8,30.25,South,174,0.0,0.0,73,0.00,,,0.00,0.0,WeatherDisplay:10.37,2013-01-08 22:36:00,
2013-01-08 17:41:00,40.2,32.6,30.25,South,174,0.0,0.0,74,0.00,,,0.00,0.0,WeatherDisplay:10.37,2013-01-08 22:41:00,
2013-01-08 17:46:00,39.7,32.4,30.25,South,174,0.0,0.0,75,0.00,OVC,,0.00,0.0,WeatherDisplay:10.37,2013-01-08 22:46:00,
2013-01-08 17:51:00,39.2,32.3,30.25,South,174,0.0,0.0,76,0.00,,,0.00,0.0,WeatherDisplay:10.37,2013-01-08 22:51:00,
2013-01-08 17:56:00,38.7,32.1,30.25,South,174,0.0,0.0,77,0.00,,,0.00,0.0,WeatherDisplay:10.37,2013-01-08 22:56:00,
2013-01-08 18:02:00,38.3,32.0,30.26,South,174,0.0,0.0,78,0.00,,,0.00,0.0,WeatherDisplay:10.37,2013-01-08 23:02:00,
2013-01-08 18:07:00,38.0,32.1,30.26,South,174,0.0,0.0,79,0.00,,,0.00,0.0,WeatherDisplay:10.37,2013-01-08 23:07:00,
2013-01-08 18:12:00,37.7,31.8,30.25,South,174,0.0,0.0,79,0.00,,,0.00,0.0,WeatherDisplay:10.37,2013-01-08 23:12:00,
2013-01-08 18:17:00,37.3,31.4,30.25,South,174,0.0,0.0,79,0.00,,,0.00,0.0,WeatherDisplay:10.37,2013-01-08 23:17:00,
2013-01-08 18:22:00,36.9,31.3,30.26,South,174,0.0,0.0,80,0.00,,,0.00,0.0,WeatherDisplay:10.37,2013-01-08 23:22:00,
2013-01-08 18:27:00,36.6,31.3,30.26,South,174,0.0,0.0,81,0.00,,,0.00,0.0,WeatherDisplay:10.37,2013-01-08 23:27:00,
2013-01-08 18:32:00,36.3,31.0,30.26,South,174,0.0,0.0,81,0.00,,,0.00,0.0,WeatherDisplay:10.37,2013-01-08 23:32:00,
2013-01-08 18:37:00,35.9,30.9,30.26,South,174,0.0,0.0,82,0.00,,,0.00,0.0,WeatherDisplay:10.37,2013-01-08 23:37:00,
2013-01-08 18:42:00,35.6,30.6,30.27,South,174,0.0,0.0,82,0.00,,,0.00,0.0,WeatherDisplay:10.37,2013-01-08 23:42:00,
2013-01-08 18:47:00,35.2,30.6,30.27,South,174,0.0,0.0,83,0.00,,,0.00,0.0,WeatherDisplay:10.37,2013-01-08 23:47:00,
2013-01-08 18:52:00,34.9,30.6,30.27,South,174,0.0,0.0,84,0.00,,,0.00,0.0,WeatherDisplay:10.37,2013-01-08 23:52:00,
2013-01-08 18:57:00,34.6,30.3,30.28,South,174,0.0,0.0,84,0.00,,,0.00,0.0,WeatherDisplay:10.37,2013-01-08 23:57:00,
2013-01-08 19:02:00,34.3,30.3,30.27,South,174,0.0,0.0,85,0.00,,,0.00,0.0,WeatherDisplay:10.37,2013-01-09 00:02:00,
2013-01-08 19:07:00,34.2,30.4,30.27,South,174,0.0,0.0,86,0.00,,,0.00,0.0,WeatherDisplay:10.37,2013-01-09 00:07:00,
2013-01-08 19:12:00,34.1,30.4,30.27,South,174,0.0,0.0,86,0.00,,,0.00,0.0,WeatherDisplay:10.37,2013-01-09 00:12:00,
2013-01-08 19:17:00,33.9,30.2,30.27,South,174,0.0,0.0,86,0.00,,,0.00,0.0,WeatherDisplay:10.37,2013-01-09 00:17:00,
2013-01-08 19:22:00,33.9,30.2,30.27,South,174,0.0,0.0,86,0.00,,,0.00,0.0,WeatherDisplay:10.37,2013-01-09 00:22:00,
2013-01-08 19:27:00,33.7,30.2,30.26,South,174,0.0,0.0,87,0.00,,,0.00,0.0,WeatherDisplay:10.37,2013-01-09 00:27:00,
2013-01-08 19:32:00,33.7,30.2,30.26,South,174,0.0,0.0,87,0.00,,,0.00,0.0,WeatherDisplay:10.37,2013-01-09 00:32:00,
2013-01-08 19:37:00,33.7,30.5,30.26,South,174,0.0,0.0,88,0.00,,,0.00,0.0,WeatherDisplay:10.37,2013-01-09 00:37:00,
2013-01-08 19:42:00,33.7,30.2,30.26,South,174,0.0,0.0,87,0.00,,,0.00,0.0,WeatherDisplay:10.37,2013-01-09 00:42:00,
2013-01-08 19:47:00,33.6,30.4,30.26,South,174,0.4,1.1,88,0.00,,,0.00,0.0,WeatherDisplay:10.37,2013-01-09 00:47:00,
2013-01-08 19:52:00,33.6,30.4,30.27,South,174,0.0,0.0,88,0.00,,,0.00,0.0,WeatherDisplay:10.37,2013-01-09 00:52:00,
2013-01-08 19:57:00,33.5,30.3,30.27,South,174,0.0,0.0,88,0.00,,,0.00,0.0,WeatherDisplay:10.37,2013-01-09 00:57:00,
2013-01-08 20:02:00,33.4,30.2,30.27,South,174,0.0,0.0,88,0.00,,,0.00,0.0,WeatherDisplay:10.37,2013-01-09 01:02:00,
2013-01-08 20:07:00,33.3,30.1,30.27,South,174,0.0,0.0,88,0.00,,,0.00,0.0,WeatherDisplay:10.37,2013-01-09 01:07:00,
2013-01-08 20:12:00,33.2,30.0,30.27,South,174,0.0,0.0,88,0.00,,,0.00,0.0,WeatherDisplay:10.37,2013-01-09 01:12:00,
2013-01-08 20:17:00,32.9,29.7,30.27,South,174,0.0,0.0,88,0.00,,,0.00,0.0,WeatherDisplay:10.37,2013-01-09 01:17:00,
2013-01-08 20:22:00,32.6,29.2,30.27,South,174,0.0,0.0,87,0.00,,,0.00,0.0,WeatherDisplay:10.37,2013-01-09 01:22:00,
2013-01-08 20:27:00,32.4,29.0,30.27,South,174,0.0,0.0,87,0.00,,,0.00,0.0,WeatherDisplay:10.37,2013-01-09 01:27:00,
2013-01-08 20:32:00,32.1,28.9,30.27,South,174,0.0,0.0,88,0.00,,,0.00,0.0,WeatherDisplay:10.37,2013-01-09 01:32:00,
2013-01-08 20:37:00,32.0,29.1,30.26,South,174,0.0,1.0,89,0.00,,,0.00,0.0,WeatherDisplay:10.37,2013-01-09 01:37:00,
2013-01-08 20:42:00,32.2,29.6,30.26,South,174,0.0,0.0,90,0.00,,,0.00,0.0,WeatherDisplay:10.37,2013-01-09 01:42:00,
2013-01-08 20:47:00,32.3,29.7,30.26,South,174,0.0,0.0,90,0.00,,,0.00,0.0,WeatherDisplay:10.37,2013-01-09 01:47:00,
2013-01-08 20:52:00,32.3,29.4,30.25,South,174,0.0,0.0,89,0.00,,,0.00,0.0,WeatherDisplay:10.37,2013-01-09 01:52:00,
2013-01-08 20:57:00,32.3,29.4,30.25,South,174,0.0,0.0,89,0.00,,,0.00,0.0,WeatherDisplay:10.37,2013-01-09 01:57:00,
2013-01-08 21:02:00,32.1,29.2,30.26,South,174,0.0,0.0,89,0.00,,,0.00,0.0,WeatherDisplay:10.37,2013-01-09 02:02:00,
2013-01-08 21:07:00,32.0,29.1,30.26,South,174,0.0,0.0,89,0.00,,,0.00,0.0,WeatherDisplay:10.37,2013-01-09 02:07:00,
2013-01-08 21:12:00,31.8,28.9,30.26,South,174,0.0,0.0,89,0.00,,,0.00,0.0,WeatherDisplay:10.37,2013-01-09 02:12:00,
2013-01-08 21:17:00,31.6,28.7,30.25,South,174,0.0,0.0,89,0.00,,,0.00,0.0,WeatherDisplay:10.37,2013-01-09 02:17:00,
2013-01-08 21:22:00,31.5,28.6,30.25,South,174,0.0,0.0,89,0.00,,,0.00,0.0,WeatherDisplay:10.37,2013-01-09 02:22:00,
2013-01-08 21:27:00,31.2,28.3,30.25,South,174,0.0,1.1,89,0.00,,,0.00,0.0,WeatherDisplay:10.37,2013-01-09 02:27:00,
2013-01-08 21:32:00,31.1,28.2,30.25,South,174,0.0,1.1,89,0.00,,,0.00,0.0,WeatherDisplay:10.37,2013-01-09 02:32:00,
2013-01-08 21:37:00,31.1,28.5,30.24,South,174,0.0,0.0,90,0.00,,,0.00,0.0,WeatherDisplay:10.37,2013-01-09 02:37:00,
2013-01-08 21:42:00,31.3,29.0,30.24,South,174,0.0,1.1,91,0.00,,,0.00,0.0,WeatherDisplay:10.37,2013-01-09 02:42:00,
2013-01-08 21:47:00,31.4,29.1,30.25,South,174,0.0,0.0,91,0.00,,,0.00,0.0,WeatherDisplay:10.37,2013-01-09 02:47:00,
2013-01-08 21:52:00,31.6,29.3,30.24,South,174,0.4,1.1,91,0.00,,,0.00,0.0,WeatherDisplay:10.37,2013-01-09 02:52:00,
2013-01-08 21:57:00,31.9,29.6,30.24,South,174,0.1,1.1,91,0.00,,,0.00,0.0,WeatherDisplay:10.37,2013-01-09 02:57:00,
2013-01-08 22:02:00,32.0,29.4,30.25,South,174,0.0,0.0,90,0.00,,,0.00,0.0,WeatherDisplay:10.37,2013-01-09 03:02:00,
2013-01-08 22:07:00,32.1,29.5,30.25,South,174,0.0,0.0,90,0.00,,,0.00,0.0,WeatherDisplay:10.37,2013-01-09 03:07:00,
2013-01-08 22:12:00,32.0,30.7,30.24,South,174,0.2,1.1,95,0.00,,,0.00,0.0,WeatherDisplay:10.37,2013-01-09 03:12:00,
2013-01-08 22:17:00,31.8,28.9,30.24,South,174,0.0,0.0,89,0.00,,,0.00,0.0,WeatherDisplay:10.37,2013-01-09 03:17:00,
2013-01-08 22:22:00,31.7,28.8,30.24,South,174,0.0,0.0,89,0.00,,,0.00,0.0,WeatherDisplay:10.37,2013-01-09 03:22:00,
2013-01-08 22:27:00,31.7,28.8,30.23,South,174,0.0,1.1,89,0.00,,,0.00,0.0,WeatherDisplay:10.37,2013-01-09 03:27:00,
2013-01-08 22:32:00,31.8,29.2,30.23,South,174,0.0,0.0,90,0.00,,,0.00,0.0,WeatherDisplay:10.37,2013-01-09 03:32:00,
2013-01-08 22:37:00,31.9,29.3,30.23,South,174,0.3,1.1,90,0.00,,,0.00,0.0,WeatherDisplay:10.37,2013-01-09 03:37:00,
2013-01-08 22:42:00,31.9,29.0,30.23,South,174,0.1,1.1,89,0.00,,,0.00,0.0,WeatherDisplay:10.37,2013-01-09 03:42:00,
2013-01-08 22:47:00,31.7,28.8,30.23,South,174,0.2,1.1,89,0.00,,,0.00,0.0,WeatherDisplay:10.37,2013-01-09 03:47:00,
2013-01-08 22:53:00,31.5,28.6,30.23,South,174,0.4,2.3,89,0.00,,,0.00,0.0,WeatherDisplay:10.37,2013-01-09 03:53:00,
2013-01-08 22:58:00,31.3,28.4,30.23,South,174,0.5,1.1,89,0.00,,,0.00,0.0,WeatherDisplay:10.37,2013-01-09 03:58:00,
2013-01-08 23:03:00,31.1,28.2,30.23,South,174,0.3,1.1,89,0.00,,,0.00,0.0,WeatherDisplay:10.37,2013-01-09 04:03:00,
2013-01-08 23:08:00,31.0,28.1,30.23,South,174,0.3,1.1,89,0.00,,,0.00,0.0,WeatherDisplay:10.37,2013-01-09 04:08:00,
2013-01-08 23:13:00,30.8,28.2,30.23,South,174,0.0,0.0,90,0.00,,,0.00,0.0,WeatherDisplay:10.37,2013-01-09 04:13:00,
2013-01-08 23:18:00,30.9,28.6,30.24,South,174,0.1,1.1,91,0.00,,,0.00,0.0,WeatherDisplay:10.37,2013-01-09 04:18:00,
2013-01-08 23:23:00,31.2,28.9,30.24,South,174,0.2,1.1,91,0.00,,,0.00,0.0,WeatherDisplay:10.37,2013-01-09 04:23:00,
2013-01-08 23:28:00,31.3,29.0,30.24,South,174,0.1,1.1,91,0.00,,,0.00,0.0,WeatherDisplay:10.37,2013-01-09 04:28:00,
2013-01-08 23:33:00,31.4,29.1,30.24,South,174,0.0,1.1,91,0.00,,,0.00,0.0,WeatherDisplay:10.37,2013-01-09 04:33:00,
2013-01-08 23:38:00,31.6,29.3,30.24,South,174,0.4,1.1,91,0.00,,,0.00,0.0,WeatherDisplay:10.37,2013-01-09 04:38:00,
2013-01-08 23:43:00,31.9,29.8,30.24,South,174,0.4,2.3,92,0.00,,,0.00,0.0,WeatherDisplay:10.37,2013-01-09 04:43:00,
2013-01-08 23:48:00,32.0,29.7,30.24,South,174,0.0,0.0,91,0.00,,,0.00,0.0,WeatherDisplay:10.37,2013-01-09 04:48:00,
2013-01-08 23:53:00,32.1,29.8,30.24,South,174,0.1,1.1,91,0.00,,,0.00,0.0,WeatherDisplay:10.37,2013-01-09 04:53:00,
2013-01-08 23:58:00,32.1,29.5,30.24,South,174,0.1,1.1,90,0.00,,,0.00,0.0,WeatherDisplay:10.37,2013-01-09 04:58:00,